Time,TemperatureF,DewpointF,PressureIn,WindDirection,WindDirectionDegrees,WindSpeedMPH,WindSpeedGustMPH,Humidity,HourlyPrecipIn,Conditions,Clouds,dailyrainin,SoftwareType,DateUTC
2013-01-24 00:00:00,24.7,6.8,29.90,East,90,2.7,2.7,46,0.00,,,0.00,WUHU216HW,2013-01-24 05:00:00,
2013-01-24 00:03:00,24.5,7.0,29.90,East,90,0.0,2.7,47,0.00,,,0.00,WUHU216HW,2013-01-24 05:03:00,
2013-01-24 00:08:00,24.5,7.0,29.89,ENE,68,0.7,2.7,47,0.00,,,0.00,WUHU216HW,2013-01-24 05:08:00,
2013-01-24 00:13:00,24.5,7.0,29.89,ESE,113,0.4,0.7,47,0.00,,,0.00,WUHU216HW,2013-01-24 05:13:00,
2013-01-24 00:18:00,24.3,6.8,29.89,East,90,1.3,1.3,47,0.00,,,0.00,WUHU216HW,2013-01-24 05:18:00,
2013-01-24 00:23:00,24.3,7.4,29.89,NE,45,0.4,1.3,48,0.00,,,0.00,WUHU216HW,2013-01-24 05:23:00,
2013-01-24 00:28:00,24.1,7.7,29.88,ENE,68,2.2,2.2,49,0.00,,,0.00,WUHU216HW,2013-01-24 05:28:00,
2013-01-24 00:33:00,24.1,7.7,29.88,East,90,1.3,2.2,49,0.00,,,0.00,WUHU216HW,2013-01-24 05:33:00,
2013-01-24 00:38:00,24.1,8.2,29.88,NNE,23,0.4,1.3,50,0.00,,,0.00,WUHU216HW,2013-01-24 05:38:00,
2013-01-24 00:43:00,23.9,8.4,29.88,East,90,1.1,1.3,51,0.00,,,0.00,WUHU216HW,2013-01-24 05:43:00,
2013-01-24 00:48:00,23.8,8.6,29.87,East,90,1.1,1.8,52,0.00,,,0.00,WUHU216HW,2013-01-24 05:48:00,
2013-01-24 00:53:00,23.6,9.3,29.88,North,0,0.9,3.1,54,0.00,,,0.00,WUHU216HW,2013-01-24 05:53:00,
2013-01-24 00:58:00,23.4,9.9,29.88,ENE,68,0.2,3.1,56,0.00,,,0.00,WUHU216HW,2013-01-24 05:58:00,
2013-01-24 01:04:00,23.0,9.5,29.88,East,90,0.4,3.8,56,0.00,,,0.00,WUHU216HW,2013-01-24 06:04:00,
2013-01-24 01:09:00,22.7,10.1,29.88,West,270,0.4,3.8,58,0.00,,,0.00,WUHU216HW,2013-01-24 06:09:00,
2013-01-24 01:14:00,22.5,10.7,29.88,NNW,338,0.0,3.4,60,0.00,,,0.00,WUHU216HW,2013-01-24 06:14:00,
2013-01-24 01:19:00,22.1,10.7,29.87,West,270,1.1,3.4,61,0.00,,,0.00,WUHU216HW,2013-01-24 06:19:00,
2013-01-24 01:24:00,22.0,10.5,29.87,NNE,23,0.0,1.6,61,0.00,,,0.00,WUHU216HW,2013-01-24 06:24:00,
2013-01-24 01:29:00,22.0,10.9,29.87,SE,135,2.5,2.5,62,0.00,,,0.00,WUHU216HW,2013-01-24 06:29:00,
2013-01-24 01:34:00,21.8,11.1,29.87,SSE,158,2.0,2.5,63,0.00,,,0.00,WUHU216HW,2013-01-24 06:34:00,
2013-01-24 01:39:00,21.6,11.3,29.87,ESE,113,0.7,2.0,64,0.00,,,0.00,WUHU216HW,2013-01-24 06:39:00,
2013-01-24 01:44:00,21.6,11.6,29.86,ENE,68,0.2,1.1,65,0.00,,,0.00,WUHU216HW,2013-01-24 06:44:00,
2013-01-24 01:49:00,21.4,11.4,29.86,SE,135,0.4,2.0,65,0.00,,,0.00,WUHU216HW,2013-01-24 06:49:00,
2013-01-24 01:54:00,21.2,11.3,29.86,SW,225,0.2,2.0,65,0.00,,,0.00,WUHU216HW,2013-01-24 06:54:00,
2013-01-24 01:59:00,21.2,11.3,29.86,ENE,68,1.1,2.0,65,0.00,,,0.00,WUHU216HW,2013-01-24 06:59:00,
2013-01-24 02:04:00,21.2,11.3,29.86,East,90,0.9,2.5,65,0.00,,,0.00,WUHU216HW,2013-01-24 07:04:00,
2013-01-24 02:09:00,21.2,11.3,29.86,ESE,113,1.1,2.5,65,0.00,,,0.00,WUHU216HW,2013-01-24 07:09:00,
2013-01-24 02:14:00,21.2,11.3,29.86,SSW,203,1.1,1.8,65,0.00,,,0.00,WUHU216HW,2013-01-24 07:14:00,
2013-01-24 02:19:00,21.1,11.4,29.86,ENE,68,1.3,3.1,66,0.00,,,0.00,WUHU216HW,2013-01-24 07:19:00,
2013-01-24 02:24:00,20.9,11.9,29.86,East,90,0.4,3.1,68,0.00,,,0.00,WUHU216HW,2013-01-24 07:24:00,
2013-01-24 02:29:00,20.7,11.7,29.86,ENE,68,0.4,2.2,68,0.00,,,0.00,WUHU216HW,2013-01-24 07:29:00,
2013-01-24 02:35:00,20.7,12.1,29.86,NNE,23,1.1,3.4,69,0.00,,,0.00,WUHU216HW,2013-01-24 07:35:00,
2013-01-24 02:40:00,20.7,12.1,29.85,ENE,68,0.4,3.4,69,0.00,,,0.00,WUHU216HW,2013-01-24 07:40:00,
2013-01-24 02:45:00,20.9,12.2,29.85,NW,315,0.0,2.5,69,0.00,,,0.00,WUHU216HW,2013-01-24 07:45:00,
2013-01-24 02:50:00,20.9,12.2,29.85,South,180,0.2,2.5,69,0.00,,,0.00,WUHU216HW,2013-01-24 07:50:00,
2013-01-24 02:55:00,20.7,12.1,29.85,South,180,0.4,2.0,69,0.00,,,0.00,WUHU216HW,2013-01-24 07:55:00,
2013-01-24 03:00:00,20.5,11.9,29.85,South,180,1.1,1.3,69,0.00,,,0.00,WUHU216HW,2013-01-24 08:00:00,
2013-01-24 03:05:00,20.5,11.9,29.85,South,180,2.0,2.0,69,0.00,,,0.00,WUHU216HW,2013-01-24 08:05:00,
2013-01-24 03:10:00,20.5,12.2,29.85,South,180,0.4,2.7,70,0.00,,,0.00,WUHU216HW,2013-01-24 08:10:00,
2013-01-24 03:15:00,20.3,12.3,29.85,South,180,0.2,2.7,71,0.00,,,0.00,WUHU216HW,2013-01-24 08:15:00,
2013-01-24 03:20:00,20.2,12.2,29.84,South,180,0.4,2.2,71,0.00,,,0.00,WUHU216HW,2013-01-24 08:20:00,
2013-01-24 03:25:00,20.2,12.2,29.84,South,180,0.0,1.1,71,0.00,,,0.00,WUHU216HW,2013-01-24 08:25:00,
2013-01-24 03:31:00,20.0,12.0,29.85,South,180,0.7,1.1,71,0.00,,,0.00,WUHU216HW,2013-01-24 08:31:00,
2013-01-24 03:36:00,20.0,12.3,29.85,South,180,0.4,0.7,72,0.00,,,0.00,WUHU216HW,2013-01-24 08:36:00,
2013-01-24 03:41:00,20.0,12.0,29.85,South,180,0.4,0.4,71,0.00,,,0.00,WUHU216HW,2013-01-24 08:41:00,
2013-01-24 03:46:00,20.0,12.0,29.85,South,180,1.1,1.1,71,0.00,,,0.00,WUHU216HW,2013-01-24 08:46:00,
2013-01-24 03:51:00,19.8,11.8,29.85,South,180,0.0,1.1,71,0.00,,,0.00,WUHU216HW,2013-01-24 08:51:00,
2013-01-24 03:56:00,19.8,12.2,29.85,South,180,0.0,0.2,72,0.00,,,0.00,WUHU216HW,2013-01-24 08:56:00,
2013-01-24 04:01:00,19.8,12.2,29.85,South,180,0.4,2.0,72,0.00,,,0.00,WUHU216HW,2013-01-24 09:01:00,
2013-01-24 04:06:00,19.8,12.2,29.84,South,180,0.4,2.0,72,0.00,,,0.00,WUHU216HW,2013-01-24 09:06:00,
2013-01-24 04:11:00,19.8,12.2,29.85,South,180,0.0,0.9,72,0.00,,,0.00,WUHU216HW,2013-01-24 09:11:00,
2013-01-24 04:16:00,19.8,12.2,29.85,South,180,0.4,1.1,72,0.00,,,0.00,WUHU216HW,2013-01-24 09:16:00,
2013-01-24 04:21:00,20.0,12.6,29.84,South,180,0.0,1.8,73,0.00,,,0.00,WUHU216HW,2013-01-24 09:21:00,
2013-01-24 04:26:00,20.0,12.6,29.85,North,0,0.4,3.4,73,0.00,,,0.00,WUHU216HW,2013-01-24 09:26:00,
2013-01-24 04:31:00,20.0,13.0,29.85,NNE,23,0.7,3.4,74,0.00,,,0.00,WUHU216HW,2013-01-24 09:31:00,
2013-01-24 04:36:00,20.0,13.0,29.85,WNW,293,0.2,1.3,74,0.00,,,0.00,WUHU216HW,2013-01-24 09:36:00,
2013-01-24 04:41:00,20.0,13.0,29.85,NE,45,0.2,0.9,74,0.00,,,0.00,WUHU216HW,2013-01-24 09:41:00,
2013-01-24 04:47:00,20.0,13.0,29.86,NNE,23,0.2,2.0,74,0.00,,,0.00,WUHU216HW,2013-01-24 09:47:00,
2013-01-24 04:52:00,20.0,13.0,29.86,NNW,338,0.2,2.5,74,0.00,,,0.00,WUHU216HW,2013-01-24 09:52:00,
2013-01-24 04:57:00,19.8,13.1,29.86,NE,45,0.4,2.7,75,0.00,,,0.00,WUHU216HW,2013-01-24 09:57:00,
2013-01-24 05:02:00,19.8,13.1,29.87,NNE,23,0.4,2.7,75,0.00,,,0.00,WUHU216HW,2013-01-24 10:02:00,
2013-01-24 05:07:00,19.8,13.1,29.87,NW,315,0.4,0.4,75,0.00,,,0.00,WUHU216HW,2013-01-24 10:07:00,
2013-01-24 05:12:00,19.6,12.9,29.87,NNE,23,0.4,2.0,75,0.00,,,0.00,WUHU216HW,2013-01-24 10:12:00,
2013-01-24 05:17:00,19.6,12.9,29.87,NNE,23,0.2,2.0,75,0.00,,,0.00,WUHU216HW,2013-01-24 10:17:00,
2013-01-24 05:22:00,19.6,12.9,29.87,North,0,0.2,1.1,75,0.00,,,0.00,WUHU216HW,2013-01-24 10:22:00,
2013-01-24 05:27:00,19.4,12.7,29.88,North,0,0.2,0.4,75,0.00,,,0.00,WUHU216HW,2013-01-24 10:27:00,
2013-01-24 05:32:00,19.4,12.7,29.88,ESE,113,0.0,0.4,75,0.00,,,0.00,WUHU216HW,2013-01-24 10:32:00,
2013-01-24 05:37:00,19.4,12.7,29.88,NNE,23,1.6,1.6,75,0.00,,,0.00,WUHU216HW,2013-01-24 10:37:00,
2013-01-24 05:42:00,19.3,12.3,29.88,East,90,0.4,1.6,74,0.00,,,0.00,WUHU216HW,2013-01-24 10:42:00,
2013-01-24 05:48:00,19.3,12.5,29.88,NNE,23,0.0,2.7,75,0.00,,,0.00,WUHU216HW,2013-01-24 10:48:00,
2013-01-24 05:53:00,19.1,12.1,29.89,North,0,0.2,2.7,74,0.00,,,0.00,WUHU216HW,2013-01-24 10:53:00,
2013-01-24 05:58:00,19.1,12.1,29.89,NNE,23,0.2,1.3,74,0.00,,,0.00,WUHU216HW,2013-01-24 10:58:00,
2013-01-24 06:03:00,19.1,12.1,29.89,NNE,23,0.9,0.9,74,0.00,,,0.00,WUHU216HW,2013-01-24 11:03:00,
2013-01-24 06:08:00,19.1,12.3,29.89,NE,45,0.4,0.9,75,0.00,,,0.00,WUHU216HW,2013-01-24 11:08:00,
2013-01-24 06:13:00,19.1,12.3,29.90,North,0,0.0,0.4,75,0.00,,,0.00,WUHU216HW,2013-01-24 11:13:00,
2013-01-24 06:18:00,19.1,12.7,29.90,North,0,0.4,1.3,76,0.00,,,0.00,WUHU216HW,2013-01-24 11:18:00,
2013-01-24 06:23:00,19.3,12.8,29.90,North,0,0.2,1.3,76,0.00,,,0.00,WUHU216HW,2013-01-24 11:23:00,
2013-01-24 06:28:00,19.3,12.8,29.91,NNE,23,0.2,1.1,76,0.00,,,0.00,WUHU216HW,2013-01-24 11:28:00,
2013-01-24 06:33:00,19.3,12.8,29.91,NW,315,0.9,0.9,76,0.00,,,0.00,WUHU216HW,2013-01-24 11:33:00,
2013-01-24 06:38:00,19.1,12.7,29.92,WNW,293,0.2,1.1,76,0.00,,,0.00,WUHU216HW,2013-01-24 11:38:00,
2013-01-24 06:43:00,19.1,12.7,29.92,West,270,0.2,1.1,76,0.00,,,0.00,WUHU216HW,2013-01-24 11:43:00,
2013-01-24 06:48:00,18.9,12.8,29.92,NNW,338,0.7,1.1,77,0.00,,,0.00,WUHU216HW,2013-01-24 11:48:00,
2013-01-24 06:53:00,18.7,12.6,29.93,NNW,338,0.9,1.1,77,0.00,,,0.00,WUHU216HW,2013-01-24 11:53:00,
2013-01-24 06:58:00,18.7,12.6,29.93,NNW,338,1.1,1.1,77,0.00,,,0.00,WUHU216HW,2013-01-24 11:58:00,
2013-01-24 07:03:00,18.5,12.7,29.93,NNW,338,0.4,2.7,78,0.00,,,0.00,WUHU216HW,2013-01-24 12:03:00,
2013-01-24 07:08:00,18.5,12.4,29.94,NNW,338,0.7,2.7,77,0.00,,,0.00,WUHU216HW,2013-01-24 12:08:00,
2013-01-24 07:13:00,18.4,12.0,29.94,SW,225,2.5,2.5,76,0.00,,,0.00,WUHU216HW,2013-01-24 12:13:00,
2013-01-24 07:18:00,18.4,12.0,29.95,North,0,1.3,2.5,76,0.00,,,0.00,WUHU216HW,2013-01-24 12:18:00,
2013-01-24 07:23:00,18.2,11.5,29.95,NNE,23,0.4,1.8,75,0.00,,,0.00,WUHU216HW,2013-01-24 12:23:00,
2013-01-24 07:28:00,17.8,10.9,29.95,North,0,0.4,3.1,74,0.00,,,0.00,WUHU216HW,2013-01-24 12:28:00,
2013-01-24 07:33:00,17.8,10.9,29.95,North,0,0.7,3.1,74,0.00,,,0.00,WUHU216HW,2013-01-24 12:33:00,
2013-01-24 07:38:00,17.6,10.7,29.96,NNW,338,0.2,0.7,74,0.00,,,0.00,WUHU216HW,2013-01-24 12:38:00,
2013-01-24 07:43:00,17.6,10.7,29.96,NNW,338,0.4,0.4,74,0.00,,,0.00,WUHU216HW,2013-01-24 12:43:00,
2013-01-24 07:48:00,17.6,10.7,29.97,WNW,293,0.0,1.8,74,0.00,,,0.00,WUHU216HW,2013-01-24 12:48:00,
2013-01-24 07:54:00,17.6,10.7,29.97,NW,315,0.2,1.8,74,0.00,,,0.00,WUHU216HW,2013-01-24 12:54:00,
2013-01-24 07:59:00,17.6,10.7,29.97,NNW,338,0.2,2.5,74,0.00,,,0.00,WUHU216HW,2013-01-24 12:59:00,
2013-01-24 08:04:00,17.6,10.7,29.97,WNW,293,0.4,2.5,74,0.00,,,0.00,WUHU216HW,2013-01-24 13:04:00,
2013-01-24 08:09:00,17.8,10.9,29.97,NE,45,0.4,1.1,74,0.00,,,0.00,WUHU216HW,2013-01-24 13:09:00,
2013-01-24 08:14:00,17.6,10.7,29.98,North,0,0.4,2.7,74,0.00,,,0.00,WUHU216HW,2013-01-24 13:14:00,
2013-01-24 08:19:00,17.8,10.5,29.98,North,0,0.0,2.7,73,0.00,,,0.00,WUHU216HW,2013-01-24 13:19:00,
2013-01-24 08:24:00,17.8,10.9,29.99,NW,315,1.1,1.8,74,0.00,,,0.00,WUHU216HW,2013-01-24 13:24:00,
2013-01-24 08:29:00,18.0,10.7,29.99,NNW,338,0.0,1.8,73,0.00,,,0.00,WUHU216HW,2013-01-24 13:29:00,
2013-01-24 08:34:00,18.0,10.7,30.00,NW,315,0.0,1.6,73,0.00,,,0.00,WUHU216HW,2013-01-24 13:34:00,
2013-01-24 08:39:00,18.2,11.2,30.00,North,0,0.0,3.1,74,0.00,,,0.00,WUHU216HW,2013-01-24 13:39:00,
2013-01-24 08:44:00,18.2,11.2,30.00,WSW,248,0.9,3.1,74,0.00,,,0.00,WUHU216HW,2013-01-24 13:44:00,
2013-01-24 08:49:00,18.4,11.3,30.01,West,270,0.4,1.3,74,0.00,,,0.00,WUHU216HW,2013-01-24 13:49:00,
2013-01-24 08:54:00,18.5,11.5,30.01,NNW,338,0.2,1.1,74,0.00,,,0.00,WUHU216HW,2013-01-24 13:54:00,
2013-01-24 08:59:00,19.1,12.1,30.02,NNW,338,1.1,1.8,74,0.00,,,0.00,WUHU216HW,2013-01-24 13:59:00,
2013-01-24 09:04:00,19.4,12.1,30.02,NNW,338,1.1,1.8,73,0.00,,,0.00,WUHU216HW,2013-01-24 14:04:00,
2013-01-24 09:09:00,19.6,12.2,30.02,NW,315,1.8,2.5,73,0.00,,,0.00,WUHU216HW,2013-01-24 14:09:00,
2013-01-24 09:14:00,19.6,12.2,30.03,NW,315,1.8,2.5,73,0.00,,,0.00,WUHU216HW,2013-01-24 14:14:00,
2013-01-24 09:19:00,19.8,12.2,30.03,South,180,1.6,2.5,72,0.00,,,0.00,WUHU216HW,2013-01-24 14:19:00,
2013-01-24 09:24:00,19.8,12.2,30.03,WNW,293,1.8,5.4,72,0.00,,,0.00,WUHU216HW,2013-01-24 14:24:00,
2013-01-24 09:29:00,19.6,12.0,30.03,WNW,293,1.8,5.4,72,0.00,,,0.00,WUHU216HW,2013-01-24 14:29:00,
2013-01-24 09:34:00,19.8,11.8,30.03,North,0,3.8,3.8,71,0.00,,,0.00,WUHU216HW,2013-01-24 14:34:00,
2013-01-24 09:39:00,19.8,11.8,30.04,NW,315,2.7,3.8,71,0.00,,,0.00,WUHU216HW,2013-01-24 14:39:00,
2013-01-24 09:44:00,20.0,12.0,30.04,NW,315,1.3,2.9,71,0.00,,,0.00,WUHU216HW,2013-01-24 14:44:00,
2013-01-24 09:49:00,20.2,11.9,30.04,North,0,1.8,2.5,70,0.00,,,0.00,WUHU216HW,2013-01-24 14:49:00,
2013-01-24 09:54:00,20.3,12.1,30.04,NNW,338,1.6,2.5,70,0.00,,,0.00,WUHU216HW,2013-01-24 14:54:00,
2013-01-24 09:59:00,20.3,11.7,30.04,WNW,293,0.9,1.8,69,0.00,,,0.00,WUHU216HW,2013-01-24 14:59:00,
2013-01-24 10:04:00,20.7,12.1,30.05,West,270,1.1,2.5,69,0.00,,,0.00,WUHU216HW,2013-01-24 15:04:00,
2013-01-24 10:09:00,20.7,12.1,30.05,WNW,293,1.3,2.5,69,0.00,,,0.00,WUHU216HW,2013-01-24 15:09:00,
2013-01-24 10:14:00,21.1,12.4,30.05,North,0,2.0,2.5,69,0.00,,,0.00,WUHU216HW,2013-01-24 15:14:00,
2013-01-24 10:19:00,21.2,12.6,30.05,WNW,293,3.4,3.4,69,0.00,,,0.00,WUHU216HW,2013-01-24 15:19:00,
2013-01-24 10:24:00,21.2,12.2,30.06,NNE,23,1.8,4.7,68,0.00,,,0.00,WUHU216HW,2013-01-24 15:24:00,
2013-01-24 10:29:00,21.4,12.2,30.06,NW,315,1.1,4.7,67,0.00,,,0.00,WUHU216HW,2013-01-24 15:29:00,
2013-01-24 10:34:00,21.6,12.0,30.06,NNW,338,0.9,4.7,66,0.00,,,0.00,WUHU216HW,2013-01-24 15:34:00,
2013-01-24 10:39:00,22.0,12.6,30.06,NNE,23,2.2,4.7,67,0.00,,,0.00,WUHU216HW,2013-01-24 15:39:00,
2013-01-24 10:44:00,22.3,13.0,30.06,North,0,0.9,2.2,67,0.00,,,0.00,WUHU216HW,2013-01-24 15:44:00,
2013-01-24 10:49:00,22.5,12.8,30.06,ENE,68,0.7,4.7,66,0.00,,,0.00,WUHU216HW,2013-01-24 15:49:00,
2013-01-24 10:54:00,22.7,13.0,30.06,North,0,1.3,4.7,66,0.00,,,0.00,WUHU216HW,2013-01-24 15:54:00,
2013-01-24 10:59:00,23.0,13.3,30.06,West,270,1.8,4.0,66,0.00,,,0.00,WUHU216HW,2013-01-24 15:59:00,
2013-01-24 11:04:00,23.2,13.2,30.06,WNW,293,1.1,3.4,65,0.00,,,0.00,WUHU216HW,2013-01-24 16:04:00,
2013-01-24 11:09:00,23.6,13.2,30.07,NNW,338,1.8,3.4,64,0.00,,,0.00,WUHU216HW,2013-01-24 16:09:00,
2013-01-24 11:14:00,23.9,13.5,30.07,West,270,1.8,4.3,64,0.00,,,0.00,WUHU216HW,2013-01-24 16:14:00,
2013-01-24 11:19:00,24.1,13.3,30.07,SW,225,2.7,5.4,63,0.00,,,0.00,WUHU216HW,2013-01-24 16:19:00,
2013-01-24 11:24:00,24.3,13.5,30.07,NW,315,1.1,5.4,63,0.00,,,0.00,WUHU216HW,2013-01-24 16:24:00,
2013-01-24 11:29:00,25.0,14.1,30.07,NW,315,2.9,5.4,63,0.00,,,0.00,WUHU216HW,2013-01-24 16:29:00,
2013-01-24 11:34:00,25.2,13.6,30.07,NW,315,1.8,5.4,61,0.00,,,0.00,WUHU216HW,2013-01-24 16:34:00,
2013-01-24 11:39:00,25.7,14.1,30.07,NNW,338,0.4,3.8,61,0.00,,,0.00,WUHU216HW,2013-01-24 16:39:00,
2013-01-24 11:44:00,26.3,14.6,30.08,WSW,248,2.2,2.2,61,0.00,,,0.00,WUHU216HW,2013-01-24 16:44:00,
2013-01-24 11:49:00,26.6,14.9,30.08,SW,225,1.6,3.6,61,0.00,,,0.00,WUHU216HW,2013-01-24 16:49:00,
2013-01-24 11:54:00,27.2,15.1,30.08,NW,315,1.1,3.6,60,0.00,,,0.00,WUHU216HW,2013-01-24 16:54:00,
2013-01-24 11:59:00,27.2,15.1,30.08,North,0,6.7,6.7,60,0.00,,,0.00,WUHU216HW,2013-01-24 16:59:00,
2013-01-24 12:05:00,26.6,13.8,30.08,WNW,293,2.2,6.7,58,0.00,,,0.00,WUHU216HW,2013-01-24 17:05:00,
2013-01-24 12:10:00,26.3,13.9,30.08,WNW,293,5.1,5.1,59,0.00,,,0.00,WUHU216HW,2013-01-24 17:10:00,
2013-01-24 12:15:00,26.1,13.7,30.08,NW,315,1.8,5.1,59,0.00,,,0.00,WUHU216HW,2013-01-24 17:15:00,
2013-01-24 12:20:00,26.1,12.9,30.08,West,270,2.5,4.5,57,0.00,,,0.00,WUHU216HW,2013-01-24 17:20:00,
2013-01-24 12:25:00,25.9,12.2,30.08,WSW,248,1.8,6.3,56,0.00,,,0.00,WUHU216HW,2013-01-24 17:25:00,
2013-01-24 12:30:00,25.9,12.7,30.08,NW,315,4.7,6.3,57,0.00,,,0.00,WUHU216HW,2013-01-24 17:30:00,
2013-01-24 12:35:00,26.3,13.1,30.08,NW,315,3.4,6.5,57,0.00,,,0.00,WUHU216HW,2013-01-24 17:35:00,
2013-01-24 12:40:00,26.6,13.3,30.08,West,270,3.4,6.5,57,0.00,,,0.00,WUHU216HW,2013-01-24 17:40:00,
2013-01-24 12:45:00,26.3,12.6,30.08,WNW,293,6.0,6.0,56,0.00,,,0.00,WUHU216HW,2013-01-24 17:45:00,
2013-01-24 12:50:00,26.1,12.1,30.08,ESE,113,3.4,7.8,55,0.00,,,0.00,WUHU216HW,2013-01-24 17:50:00,
2013-01-24 12:55:00,26.3,12.6,30.09,NNW,338,3.6,7.8,56,0.00,,,0.00,WUHU216HW,2013-01-24 17:55:00,
2013-01-24 13:00:00,26.3,12.2,30.08,WNW,293,4.9,8.5,55,0.00,,,0.00,WUHU216HW,2013-01-24 18:00:00,
2013-01-24 13:05:00,26.5,12.8,30.09,SSW,203,1.8,8.5,56,0.01,,,0.01,WUHU216HW,2013-01-24 18:05:00,
2013-01-24 13:10:00,26.6,13.0,30.09,NW,315,4.0,4.0,56,0.01,,,0.01,WUHU216HW,2013-01-24 18:10:00,
2013-01-24 13:15:00,26.5,12.8,30.09,WNW,293,0.9,4.0,56,0.01,,,0.01,WUHU216HW,2013-01-24 18:15:00,
2013-01-24 13:20:00,26.5,12.8,30.09,West,270,3.8,6.3,56,0.01,,,0.01,WUHU216HW,2013-01-24 18:20:00,
2013-01-24 13:25:00,25.9,12.7,30.09,WNW,293,3.4,7.2,57,0.01,,,0.01,WUHU216HW,2013-01-24 18:25:00,
2013-01-24 13:30:00,25.9,12.7,30.09,WNW,293,2.5,4.3,57,0.01,,,0.01,WUHU216HW,2013-01-24 18:30:00,
2013-01-24 13:35:00,26.1,12.9,30.09,NNW,338,4.7,4.7,57,0.01,,,0.01,WUHU216HW,2013-01-24 18:35:00,
2013-01-24 13:40:00,26.5,12.3,30.09,SW,225,4.3,4.7,55,0.01,,,0.01,WUHU216HW,2013-01-24 18:40:00,
2013-01-24 13:45:00,26.8,12.7,30.09,WNW,293,4.5,4.5,55,0.01,,,0.01,WUHU216HW,2013-01-24 18:45:00,
2013-01-24 13:50:00,27.7,12.8,30.09,West,270,6.7,6.7,53,0.01,,,0.01,WUHU216HW,2013-01-24 18:50:00,
2013-01-24 13:55:00,28.3,13.3,30.09,NW,315,3.8,7.4,53,0.01,,,0.01,WUHU216HW,2013-01-24 18:55:00,
2013-01-24 14:00:00,28.8,13.4,30.10,WNW,293,6.9,7.4,52,0.01,,,0.01,WUHU216HW,2013-01-24 19:00:00,
2013-01-24 14:05:00,29.0,13.1,30.10,WSW,248,1.8,7.8,51,0.00,,,0.01,WUHU216HW,2013-01-24 19:05:00,
2013-01-24 14:10:00,29.2,12.4,30.10,SW,225,6.7,8.7,49,0.00,,,0.01,WUHU216HW,2013-01-24 19:10:00,
2013-01-24 14:15:00,28.8,11.5,30.10,NNW,338,4.7,8.7,48,0.00,,,0.01,WUHU216HW,2013-01-24 19:15:00,
2013-01-24 14:20:00,28.4,10.7,30.10,SSW,203,2.2,5.8,47,0.00,,,0.01,WUHU216HW,2013-01-24 19:20:00,
2013-01-24 14:25:00,28.6,11.4,30.10,NNE,23,3.4,5.8,48,0.00,,,0.01,WUHU216HW,2013-01-24 19:25:00,
2013-01-24 14:30:00,28.8,11.1,30.10,SSW,203,2.0,5.4,47,0.00,,,0.01,WUHU216HW,2013-01-24 19:30:00,
2013-01-24 14:36:00,29.3,12.1,30.10,South,180,1.1,5.4,48,0.01,,,0.02,WUHU216HW,2013-01-24 19:36:00,
2013-01-24 14:41:00,29.3,11.1,30.10,SSE,158,3.1,3.4,46,0.01,,,0.02,WUHU216HW,2013-01-24 19:41:00,
2013-01-24 14:46:00,29.2,10.9,30.11,WNW,293,1.6,4.0,46,0.01,,,0.02,WUHU216HW,2013-01-24 19:46:00,
2013-01-24 14:51:00,29.2,10.9,30.11,NNW,338,1.1,4.0,46,0.01,,,0.02,WUHU216HW,2013-01-24 19:51:00,
2013-01-24 14:56:00,29.2,10.4,30.11,WSW,248,2.7,2.7,45,0.01,,,0.02,WUHU216HW,2013-01-24 19:56:00,
2013-01-24 15:01:00,29.0,9.7,30.11,NW,315,3.4,3.8,44,0.01,,,0.02,WUHU216HW,2013-01-24 20:01:00,
2013-01-24 15:06:00,28.8,9.0,30.11,NW,315,0.7,5.8,43,0.01,,,0.02,WUHU216HW,2013-01-24 20:06:00,
2013-01-24 15:11:00,28.6,8.9,30.12,NNE,23,3.8,5.8,43,0.01,,,0.02,WUHU216HW,2013-01-24 20:11:00,
2013-01-24 15:16:00,28.6,8.9,30.12,NW,315,4.7,4.7,43,0.01,,,0.02,WUHU216HW,2013-01-24 20:16:00,
2013-01-24 15:21:00,28.4,9.2,30.12,WNW,293,6.3,6.3,44,0.01,,,0.02,WUHU216HW,2013-01-24 20:21:00,
2013-01-24 15:26:00,28.4,8.7,30.13,North,0,4.3,6.3,43,0.01,,,0.02,WUHU216HW,2013-01-24 20:26:00,
2013-01-24 15:31:00,27.9,7.8,30.13,SSE,158,1.3,7.6,42,0.01,,,0.02,WUHU216HW,2013-01-24 20:31:00,
2013-01-24 15:36:00,27.7,8.0,30.13,North,0,1.8,7.6,43,0.00,,,0.02,WUHU216HW,2013-01-24 20:36:00,
2013-01-24 15:41:00,27.7,7.6,30.14,NNW,338,1.1,5.8,42,0.00,,,0.02,WUHU216HW,2013-01-24 20:41:00,
2013-01-24 15:46:00,27.7,7.6,30.14,NW,315,1.8,4.7,42,0.00,,,0.02,WUHU216HW,2013-01-24 20:46:00,
2013-01-24 15:51:00,27.7,7.6,30.14,NNW,338,0.4,4.7,42,0.00,,,0.02,WUHU216HW,2013-01-24 20:51:00,
2013-01-24 15:56:00,27.7,7.6,30.15,NNW,338,2.2,5.6,42,0.00,,,0.02,WUHU216HW,2013-01-24 20:56:00,
2013-01-24 16:01:00,27.5,7.4,30.15,NNW,338,4.9,5.6,42,0.00,,,0.02,WUHU216HW,2013-01-24 21:01:00,
2013-01-24 16:06:00,27.4,6.8,30.15,WNW,293,4.0,4.9,41,0.00,,,0.02,WUHU216HW,2013-01-24 21:06:00,
2013-01-24 16:11:00,27.2,6.6,30.15,West,270,0.4,5.4,41,0.00,,,0.02,WUHU216HW,2013-01-24 21:11:00,
2013-01-24 16:16:00,27.0,6.4,30.15,North,0,2.5,5.4,41,0.00,,,0.02,WUHU216HW,2013-01-24 21:16:00,
2013-01-24 16:21:00,26.8,6.8,30.16,WNW,293,1.3,4.0,42,0.00,,,0.02,WUHU216HW,2013-01-24 21:21:00,
2013-01-24 16:26:00,26.8,6.8,30.16,SW,225,2.2,4.0,42,0.00,,,0.02,WUHU216HW,2013-01-24 21:26:00,
2013-01-24 16:31:00,26.5,6.4,30.16,WNW,293,3.4,4.7,42,0.00,,,0.02,WUHU216HW,2013-01-24 21:31:00,
2013-01-24 16:36:00,26.3,6.2,30.16,SW,225,3.8,4.7,42,0.00,,,0.02,WUHU216HW,2013-01-24 21:36:00,
2013-01-24 16:41:00,26.3,5.8,30.16,NNW,338,3.4,5.8,41,0.00,,,0.02,WUHU216HW,2013-01-24 21:41:00,
2013-01-24 16:46:00,26.1,6.0,30.17,NNW,338,1.6,5.8,42,0.00,,,0.02,WUHU216HW,2013-01-24 21:46:00,
2013-01-24 16:51:00,25.9,5.4,30.17,SW,225,3.4,6.3,41,0.00,,,0.02,WUHU216HW,2013-01-24 21:51:00,
2013-01-24 16:56:00,25.7,5.8,30.17,WNW,293,4.7,6.3,42,0.00,,,0.02,WUHU216HW,2013-01-24 21:56:00,
2013-01-24 17:01:00,25.6,5.6,30.17,West,270,0.9,4.7,42,0.00,,,0.02,WUHU216HW,2013-01-24 22:01:00,
2013-01-24 17:06:00,25.4,6.0,30.17,NW,315,1.3,4.0,43,0.00,,,0.02,WUHU216HW,2013-01-24 22:06:00,
2013-01-24 17:11:00,25.2,5.8,30.17,NW,315,1.3,2.9,43,0.00,,,0.02,WUHU216HW,2013-01-24 22:11:00,
2013-01-24 17:16:00,25.0,5.6,30.17,North,0,0.9,3.4,43,0.00,,,0.02,WUHU216HW,2013-01-24 22:16:00,
2013-01-24 17:21:00,25.0,5.6,30.18,WSW,248,1.3,4.5,43,0.00,,,0.02,WUHU216HW,2013-01-24 22:21:00,
2013-01-24 17:26:00,24.8,5.0,30.18,NNE,23,0.9,4.5,42,0.00,,,0.02,WUHU216HW,2013-01-24 22:26:00,
2013-01-24 17:31:00,24.7,5.2,30.19,WNW,293,2.2,2.2,43,0.00,,,0.02,WUHU216HW,2013-01-24 22:31:00,
2013-01-24 17:36:00,24.7,5.2,30.19,NW,315,0.2,3.4,43,0.00,,,0.02,WUHU216HW,2013-01-24 22:36:00,
2013-01-24 17:41:00,24.5,5.6,30.19,West,270,0.7,3.4,44,0.00,,,0.02,WUHU216HW,2013-01-24 22:41:00,
2013-01-24 17:46:00,24.1,5.2,30.19,WSW,248,0.2,0.9,44,0.00,,,0.02,WUHU216HW,2013-01-24 22:46:00,
2013-01-24 17:51:00,23.8,5.0,30.19,SSW,203,1.8,1.8,44,0.00,,,0.02,WUHU216HW,2013-01-24 22:51:00,
2013-01-24 17:56:00,23.4,4.6,30.19,SW,225,0.4,1.8,44,0.00,,,0.02,WUHU216HW,2013-01-24 22:56:00,
2013-01-24 18:01:00,23.4,4.6,30.19,South,180,1.3,1.3,44,0.00,,,0.02,WUHU216HW,2013-01-24 23:01:00,
2013-01-24 18:06:00,23.4,4.6,30.20,West,270,0.4,1.3,44,0.00,,,0.02,WUHU216HW,2013-01-24 23:06:00,
2013-01-24 18:11:00,23.2,4.4,30.21,WSW,248,0.4,0.9,44,0.00,,,0.02,WUHU216HW,2013-01-24 23:11:00,
2013-01-24 18:16:00,22.9,4.6,30.21,West,270,0.0,1.8,45,0.00,,,0.02,WUHU216HW,2013-01-24 23:16:00,
2013-01-24 18:21:00,22.9,4.6,30.21,West,270,0.7,1.8,45,0.00,,,0.02,WUHU216HW,2013-01-24 23:21:00,
2013-01-24 18:26:00,23.0,4.8,30.21,WNW,293,3.1,3.1,45,0.00,,,0.02,WUHU216HW,2013-01-24 23:26:00,
2013-01-24 18:32:00,23.0,4.8,30.21,WSW,248,0.0,3.1,45,0.00,,,0.02,WUHU216HW,2013-01-24 23:32:00,
2013-01-24 18:37:00,23.0,5.2,30.21,WSW,248,0.7,2.2,46,0.00,,,0.02,WUHU216HW,2013-01-24 23:37:00,
2013-01-24 18:42:00,22.9,5.0,30.22,WSW,248,0.9,1.1,46,0.00,,,0.02,WUHU216HW,2013-01-24 23:42:00,
2013-01-24 18:47:00,22.9,5.0,30.22,WNW,293,0.7,1.8,46,0.00,,,0.02,WUHU216HW,2013-01-24 23:47:00,
2013-01-24 18:52:00,22.7,5.0,30.21,WNW,293,1.6,2.0,46,0.00,,,0.02,WUHU216HW,2013-01-24 23:52:00,
2013-01-24 18:57:00,22.7,5.0,30.21,West,270,0.4,2.0,46,0.00,,,0.02,WUHU216HW,2013-01-24 23:57:00,
2013-01-24 19:02:00,22.7,5.0,30.21,NW,315,0.4,1.8,46,0.00,,,0.02,WUHU216HW,2013-01-25 00:02:00,
2013-01-24 19:07:00,22.9,5.0,30.22,NW,315,1.8,1.8,46,0.00,,,0.02,WUHU216HW,2013-01-25 00:07:00,
2013-01-24 19:12:00,22.7,5.4,30.22,West,270,1.3,2.5,47,0.00,,,0.02,WUHU216HW,2013-01-25 00:12:00,
2013-01-24 19:17:00,22.5,5.2,30.22,NE,45,0.9,2.5,47,0.00,,,0.02,WUHU216HW,2013-01-25 00:17:00,
2013-01-24 19:22:00,22.3,5.0,30.23,NW,315,0.4,1.8,47,0.00,,,0.02,WUHU216HW,2013-01-25 00:22:00,
2013-01-24 19:27:00,22.1,4.9,30.23,WNW,293,0.7,1.8,47,0.00,,,0.02,WUHU216HW,2013-01-25 00:27:00,
2013-01-24 19:32:00,22.1,5.3,30.23,West,270,1.1,1.8,48,0.00,,,0.02,WUHU216HW,2013-01-25 00:32:00,
2013-01-24 19:37:00,22.0,5.1,30.24,SSW,203,0.4,1.3,48,0.00,,,0.02,WUHU216HW,2013-01-25 00:37:00,
2013-01-24 19:42:00,22.0,5.1,30.24,NW,315,0.4,2.5,48,0.00,,,0.02,WUHU216HW,2013-01-25 00:42:00,
2013-01-24 19:47:00,22.0,5.1,30.25,NNW,338,0.9,2.5,48,0.00,,,0.02,WUHU216HW,2013-01-25 00:47:00,
2013-01-24 19:52:00,22.0,5.1,30.24,NW,315,0.0,1.8,48,0.00,,,0.02,WUHU216HW,2013-01-25 00:52:00,
2013-01-24 19:57:00,22.0,5.1,30.24,SW,225,1.6,1.8,48,0.00,,,0.02,WUHU216HW,2013-01-25 00:57:00,
2013-01-24 20:02:00,22.0,5.1,30.24,NW,315,1.1,1.8,48,0.00,,,0.02,WUHU216HW,2013-01-25 01:02:00,
2013-01-24 20:07:00,21.8,5.5,30.24,SSW,203,0.7,1.8,49,0.00,,,0.02,WUHU216HW,2013-01-25 01:07:00,
2013-01-24 20:12:00,21.6,5.3,30.24,NW,315,1.8,2.7,49,0.00,,,0.02,WUHU216HW,2013-01-25 01:12:00,
2013-01-24 20:17:00,21.6,5.3,30.24,SSE,158,0.2,2.7,49,0.00,,,0.02,WUHU216HW,2013-01-25 01:17:00,
2013-01-24 20:22:00,21.4,5.1,30.24,WSW,248,0.4,1.8,49,0.00,,,0.02,WUHU216HW,2013-01-25 01:22:00,
2013-01-24 20:27:00,21.4,5.1,30.24,NW,315,0.9,1.8,49,0.00,,,0.02,WUHU216HW,2013-01-25 01:27:00,
2013-01-24 20:32:00,21.6,5.3,30.24,SW,225,0.7,1.1,49,0.00,,,0.02,WUHU216HW,2013-01-25 01:32:00,
2013-01-24 20:37:00,21.4,5.1,30.24,South,180,0.2,1.1,49,0.00,,,0.02,WUHU216HW,2013-01-25 01:37:00,
2013-01-24 20:42:00,21.2,5.0,30.24,WNW,293,0.9,1.3,49,0.00,,,0.02,WUHU216HW,2013-01-25 01:42:00,
2013-01-24 20:47:00,21.2,5.4,30.24,WSW,248,0.4,1.3,50,0.00,,,0.02,WUHU216HW,2013-01-25 01:47:00,
2013-01-24 20:52:00,21.2,5.4,30.24,NW,315,1.3,1.3,50,0.00,,,0.02,WUHU216HW,2013-01-25 01:52:00,
2013-01-24 20:57:00,20.9,5.0,30.24,SSW,203,0.4,1.3,50,0.00,,,0.02,WUHU216HW,2013-01-25 01:57:00,
2013-01-24 21:02:00,20.5,4.8,30.24,West,270,0.0,1.8,50,0.00,,,0.02,WUHU216HW,2013-01-25 02:02:00,
2013-01-24 21:07:00,20.2,4.4,30.24,WNW,293,0.4,1.8,50,0.00,,,0.02,WUHU216HW,2013-01-25 02:07:00,
2013-01-24 21:12:00,19.8,4.2,30.24,SW,225,0.4,0.7,50,0.00,,,0.02,WUHU216HW,2013-01-25 02:12:00,
2013-01-24 21:17:00,19.6,4.3,30.25,NW,315,0.7,0.7,51,0.00,,,0.02,WUHU216HW,2013-01-25 02:17:00,
2013-01-24 21:22:00,19.4,4.1,30.24,NNW,338,0.2,0.7,51,0.00,,,0.02,WUHU216HW,2013-01-25 02:22:00,
2013-01-24 21:27:00,19.3,4.1,30.24,WNW,293,0.4,0.7,51,0.00,,,0.02,WUHU216HW,2013-01-25 02:27:00,
2013-01-24 21:32:00,19.1,3.9,30.24,WSW,248,0.0,0.7,51,0.00,,,0.02,WUHU216HW,2013-01-25 02:32:00,
2013-01-24 21:37:00,18.9,3.7,30.24,SW,225,0.0,0.7,51,0.00,,,0.02,WUHU216HW,2013-01-25 02:37:00,
2013-01-24 21:42:00,18.5,3.3,30.24,WNW,293,0.4,0.7,51,0.00,,,0.02,WUHU216HW,2013-01-25 02:42:00,
2013-01-24 21:47:00,18.2,3.1,30.24,WSW,248,0.0,0.4,51,0.00,,,0.02,WUHU216HW,2013-01-25 02:47:00,
2013-01-24 21:52:00,17.8,2.7,30.24,South,180,0.0,0.0,51,0.00,,,0.02,WUHU216HW,2013-01-25 02:52:00,
2013-01-24 21:57:00,17.3,2.6,30.24,South,180,0.0,0.0,52,0.00,,,0.02,WUHU216HW,2013-01-25 02:57:00,
2013-01-24 22:03:00,16.9,2.3,30.24,West,270,0.0,0.0,52,0.00,,,0.02,WUHU216HW,2013-01-25 03:03:00,
2013-01-24 22:08:00,16.6,2.3,30.24,NW,315,0.0,0.0,53,0.00,,,0.02,WUHU216HW,2013-01-25 03:08:00,
2013-01-24 22:13:00,16.4,2.2,30.24,SSE,158,0.0,0.4,53,0.00,,,0.02,WUHU216HW,2013-01-25 03:13:00,
2013-01-24 22:18:00,16.2,2.4,30.24,South,180,0.0,0.4,54,0.00,,,0.02,WUHU216HW,2013-01-25 03:18:00,
2013-01-24 22:23:00,15.8,2.1,30.24,WNW,293,0.0,0.0,54,0.00,,,0.02,WUHU216HW,2013-01-25 03:23:00,
2013-01-24 22:28:00,15.5,1.7,30.24,WNW,293,0.0,0.0,54,0.00,,,0.02,WUHU216HW,2013-01-25 03:28:00,
2013-01-24 22:33:00,15.3,1.9,30.24,WSW,248,0.0,0.4,55,0.00,,,0.02,WUHU216HW,2013-01-25 03:33:00,
2013-01-24 22:38:00,15.1,1.7,30.24,WSW,248,0.0,0.4,55,0.00,,,0.02,WUHU216HW,2013-01-25 03:38:00,
2013-01-24 22:43:00,14.9,2.0,30.24,WNW,293,0.2,0.4,56,0.00,,,0.02,WUHU216HW,2013-01-25 03:43:00,
2013-01-24 22:48:00,14.9,2.0,30.24,SSW,203,0.2,0.4,56,0.00,,,0.02,WUHU216HW,2013-01-25 03:48:00,
2013-01-24 22:53:00,14.8,2.2,30.25,NNW,338,0.2,0.4,57,0.00,,,0.02,WUHU216HW,2013-01-25 03:53:00,
2013-01-24 22:58:00,14.8,2.2,30.25,NW,315,0.0,0.4,57,0.00,,,0.02,WUHU216HW,2013-01-25 03:58:00,
2013-01-24 23:03:00,14.9,2.3,30.25,South,180,0.2,1.1,57,0.00,,,0.02,WUHU216HW,2013-01-25 04:03:00,
2013-01-24 23:08:00,14.9,2.3,30.25,WSW,248,0.0,1.1,57,0.00,,,0.02,WUHU216HW,2013-01-25 04:08:00,
2013-01-24 23:13:00,14.9,2.7,30.24,West,270,0.2,0.4,58,0.00,,,0.02,WUHU216HW,2013-01-25 04:13:00,
2013-01-24 23:18:00,15.3,3.1,30.25,SW,225,0.2,1.8,58,0.00,,,0.02,WUHU216HW,2013-01-25 04:18:00,
2013-01-24 23:23:00,15.5,3.3,30.25,South,180,0.4,1.8,58,0.00,,,0.02,WUHU216HW,2013-01-25 04:23:00,
2013-01-24 23:28:00,15.5,3.3,30.24,WNW,293,0.0,1.1,58,0.00,,,0.02,WUHU216HW,2013-01-25 04:28:00,
2013-01-24 23:33:00,15.5,3.3,30.25,South,180,0.9,1.1,58,0.00,,,0.02,WUHU216HW,2013-01-25 04:33:00,
2013-01-24 23:38:00,15.7,3.4,30.25,SW,225,0.4,1.6,58,0.00,,,0.02,WUHU216HW,2013-01-25 04:38:00,
2013-01-24 23:43:00,15.7,3.4,30.25,North,0,0.0,1.6,58,0.00,,,0.02,WUHU216HW,2013-01-25 04:43:00,
2013-01-24 23:48:00,15.8,3.6,30.25,NW,315,0.4,1.1,58,0.00,,,0.02,WUHU216HW,2013-01-25 04:48:00,
2013-01-24 23:53:00,16.0,3.8,30.25,NW,315,0.0,1.1,58,0.00,,,0.02,WUHU216HW,2013-01-25 04:53:00,
2013-01-24 23:58:00,16.2,4.0,30.24,SW,225,0.0,1.1,58,0.00,,,0.02,WUHU216HW,2013-01-25 04:58:00,